Regional Weather Roundup
Issued by NWS State College, PA

Home | Current Version | Previous Version | Text Only | Print | Product List | Glossary On
Versions: 1 2 3 4 5 6 7 8 9 10 11 12 13 14 15 16 17 18 19 20 21 22 23 24 25 26 27 28 29 30 31 32 33 34 35 36 37 38 39 40 41 42 43 44 45 46 47 48 49 50
653
ASUS41 KCTP 240903
RWRCTP

REGIONAL WEATHER ROUNDUP
NATIONAL WEATHER SERVICE STATE COLLEGE PA
500 AM EDT MON JUL 24 2017

Note: "fair" indicates few or no clouds below 12,000 feet with no
significant weather and/or obstructions to visibility.

* = STATION THAT DOES NOT REPORT PRECIPITATION /E.G. RAIN...SNOW...ETC/
    THUNDER OR FOG.

PAZ002>004-007>009-013>016-020>023-029>032-241000-
WESTERN PENNSYLVANIA

CITY           SKY/WX    TMP DP  RH WIND       PRES   REMARKS
ERIE           MOCLDY    72  68  87 SW6       29.75R
MEADVILLE      NOT AVBL
FRANKLIN*      CLOUDY    66  63  88 W9        29.81R VSB 3/4
NEW CASTLE     FAIR      67  67 100 SW6       29.81R
BEAVER COUNTY  NOT AVBL
BUTLER*        CLOUDY    68  64  88 W9        29.81R
PITTSBURGH INT CLOUDY    67  67 100 W5        29.81R
PITTSBURGH     CLOUDY    67  63  87 SW7       29.81R
INDIANA*       CLOUDY    68  68 100 W7        29.83R FOG
LATROBE        CLOUDY    66  66 100 SW6       29.83R
WASHINGTON CO* CLOUDY    64  63  94 W3        29.82S
$$

PAZ004>006-010>012-017>019-024>028-033>037-041-042-045-046-049>053-241000-
CENTRAL PENNSYLVANIA

CITY           SKY/WX    TMP DP  RH WIND       PRES   REMARKS
BRADFORD       CLOUDY    67  67 100 VRB5      29.80S
DUBOIS         CLOUDY    63  62  97 CALM      29.81R FOG
CLEARFIELD     FOG       66  66 100 CALM      29.81R VSB 1
JOHNSTOWN      CLOUDY    66  65  96 W10       29.83S
ALTOONA        CLOUDY    69  69 100 CALM      29.81R
STATE COLLEGE  DRIZZLE   65  65  97 CALM      29.80R
WILLIAMSPORT   RAIN      67  66  97 CALM      29.76S FOG
SELINSGROVE    RAIN      67  67 100 NW12      29.76R FOG
FT INDIANTOWN  CLOUDY    69  69 100 NE3       29.73S
CAPITAL CITY   CLOUDY    73  69  87 CALM      29.71F
HARRISBURG     CLOUDY    72  71  97 CALM      29.71F
YORK           MOCLDY    70  70 100 CALM      29.72F
$$

PAZ038>040-043-044-047-048-054-055-060>062-067>071-241000-
EASTERN PENNSYLVANIA

CITY           SKY/WX    TMP DP  RH WIND       PRES   REMARKS
SCRANTON       HVY RAIN  66  65  96 E5        29.80R FOG
MOUNT POCONO   RAIN      63  63 100 SE14      29.79F FOG
ALLENTOWN      LGT RAIN  70  66  87 VRB3      29.75S
QUAKERTOWN*    CLOUDY    68  68 100 E7        29.76F
READING        CLOUDY    70  70 100 S3        29.72S
LANCASTER      PTCLDY    71  71 100 E3        29.72F FOG
COATESVILLE    FOG       70  70 100 SE3       29.76F VSB<1/4
POTTSTOWN      CLOUDY    69  69 100 E5        29.75F
BLUE BELL      CLOUDY    68  68 100 E3        29.76F
DOYLESTOWN     LGT RAIN  69  69 100 CALM      29.74F
WILLOW GROVE   NOT AVBL
NORTH PHILA    LGT RAIN  73  71  93 E6        29.75F
PHILADELPHIA   CLOUDY    72  70  93 E8        29.74F
$$




USA.gov is the U.S. government's official web portal to all federal, state and local government web resources and services.